DW9346 Weather Reports


time (UTC)temp
F
wind
direction
speed
knots
gust
knots
rain 1hr
in
rain 24hr
in
rain mn
in
humidity
%
barometer
mb
20190825134704 58 259 0.0 1.7 0.00 0.00 0.00 93 1019.0
20190825134205 58 259 0.0 2.6 0.00 0.00 0.00 93 1018.8
20190825133704 58 259 0.0 2.6 0.00 0.00 0.00 93 1018.8
20190825133205 58 259 0.0 2.6 0.00 0.00 0.00 93 1018.6
20190825132704 58 259 0.0 1.7 0.00 0.00 0.00 93 1018.6
20190825132204 58 259 0.0 1.7 0.00 0.00 0.00 93 1018.6
20190825131703 58 259 0.0 1.7 0.00 0.00 0.00 93 1018.6
20190825131204 58 259 0.0 0.0 0.00 0.00 0.00 93 1018.5
20190825130704 58 259 0.0 0.0 0.00 0.00 0.00 93 1018.4
20190825130204 58 259 0.0 2.6 0.00 0.00 0.00 93 1018.4
20190825125703 58 259 0.0 2.6 0.00 0.00 0.00 93 1018.3
20190825125204 58 259 0.0 2.6 0.00 0.00 0.00 93 1018.3
20190825124705 58 259 0.0 2.6 0.00 0.00 0.00 93 1018.1
20190825124204 58 259 0.0 2.6 0.00 0.00 0.00 93 1018.1
20190825123704 58 259 0.0 2.6 0.00 0.00 0.00 93 1018.1
20190825123204 58 257 0.0 0.0 0.00 0.00 0.00 93 1017.9
20190825122704 58 257 0.0 0.0 0.00 0.00 0.00 93 1017.9
20190825122204 58 257 0.0 0.0 0.00 0.00 0.00 93 1017.8
20190825121704 58 257 0.0 0.0 0.00 0.00 0.00 93 1017.7
20190825121205 58 257 0.0 0.0 0.00 0.00 0.00 93 1017.8
20190825120704 58 257 0.0 0.0 0.00 0.00 0.00 93 1017.7
20190825120204 58 257 0.0 0.0 0.00 0.00 0.00 93 1017.7
20190825115704 58 257 0.0 0.0 0.00 0.00 0.00 93 1017.7
20190825115204 58 257 0.0 0.0 0.00 0.00 0.00 93 1017.7
20190825114704 58 257 0.0 0.0 0.00 0.00 0.00 93 1017.6
20190825114205 58 257 0.0 0.0 0.00 0.00 0.00 93 1017.5
20190825113704 58 257 0.0 0.0 0.00 0.00 0.00 93 1017.6
20190825113204 58 257 0.0 0.0 0.00 0.00 0.00 93 1017.5
20190825112704 58 257 0.0 0.0 0.00 0.00 0.00 93 1017.5
20190825112204 58 257 0.0 0.0 0.00 0.00 0.00 93 1017.5
20190825111704 58 257 0.0 0.0 0.00 0.00 0.00 94 1017.4
20190825111204 58 257 0.0 0.0 0.00 0.00 0.00 94 1017.2
20190825110704 58 257 0.0 0.0 0.00 0.00 0.00 94 1017.2
20190825110204 58 257 0.0 0.0 0.00 0.00 0.00 94 1017.1
20190825105704 58 257 0.0 0.0 0.00 0.00 0.00 94 1017.1
20190825105205 58 257 0.0 0.0 0.00 0.00 0.00 94 1017.1
20190825104704 58 257 0.0 0.0 0.00 0.00 0.00 94 1017.0
20190825104205 58 257 0.0 0.0 0.00 0.00 0.00 94 1017.1
20190825103704 58 257 0.0 0.0 0.00 0.00 0.00 94 1017.1
20190825103204 58 257 0.0 0.0 0.00 0.00 0.00 94 1017.0
20190825102704 58 257 0.0 0.0 0.00 0.00 0.00 94 1017.1
20190825102204 58 257 0.0 0.0 0.00 0.00 0.00 94 1017.2
20190825101703 58 257 0.0 0.0 0.00 0.00 0.00 94 1017.1
20190825101204 58 257 0.0 0.0 0.00 0.00 0.00 94 1017.1
20190825100704 58 257 0.0 0.0 0.00 0.00 0.00 94 1016.9
20190825100204 58 257 0.0 0.0 0.00 0.00 0.00 94 1017.0
20190825095704 58 257 0.0 0.0 0.00 0.00 0.00 94 1016.9
20190825095203 58 257 0.0 0.0 0.00 0.00 0.00 94 1016.9
20190825094704 58 257 0.0 0.0 0.00 0.00 0.00 94 1016.9
20190825094204 58 257 0.0 0.0 0.00 0.00 0.00 94 1016.9
20190825093704 58 257 0.0 0.0 0.00 0.00 0.00 94 1017.0
20190825093204 58 257 0.0 0.0 0.00 0.00 0.00 94 1017.0
20190825092703 58 257 0.0 0.0 0.00 0.00 0.00 94 1017.0
20190825092204 58 257 0.0 0.0 0.00 0.00 0.00 94 1016.8
20190825091704 58 257 0.0 0.0 0.00 0.00 0.00 94 1016.8
20190825091204 58 257 0.0 0.0 0.00 0.00 0.00 94 1016.8
20190825090703 58 257 0.0 0.0 0.00 0.00 0.00 94 1016.8
20190825090204 58 257 0.0 0.0 0.00 0.00 0.00 94 1016.8
20190825085704 58 257 0.0 0.0 0.00 0.00 0.00 94 1016.9
20190825085205 58 257 0.0 0.0 0.00 0.00 0.00 94 1016.8
20190825084704 58 257 0.0 0.0 0.00 0.00 0.00 94 1016.8
20190825084204 58 257 0.0 0.0 0.00 0.00 0.00 94 1016.6
20190825083703 58 257 0.0 0.0 0.00 0.00 0.00 94 1016.7
20190825083204 58 222 0.0 0.0 0.00 0.00 0.00 94 1016.6
20190825082704 58 221 0.0 0.0 0.00 0.00 0.00 94 1016.5
20190825082204 58 221 0.0 0.0 0.00 0.00 0.00 94 1016.4
20190825081704 58 221 0.0 0.0 0.00 0.00 0.00 94 1016.5
20190825081206 58 221 0.0 0.0 0.00 0.00 0.00 93 1016.5
20190825080704 58 221 0.0 0.0 0.00 0.00 0.00 93 1016.5
20190825080208 58 221 0.0 0.0 0.00 0.00 0.00 93 1016.4
20190825075704 58 221 0.0 0.0 0.00 0.00 0.00 93 1016.4
20190825075205 58 221 0.0 0.0 0.00 0.00 0.00 93 1016.3
20190825074704 58 221 0.0 0.0 0.00 0.00 0.00 92 1016.2
20190825074205 58 221 0.0 0.0 0.00 0.00 0.00 92 1016.2
20190825073704 59 221 0.0 0.0 0.00 0.00 0.00 92 1016.2
20190825073204 59 221 0.0 0.0 0.00 0.00 0.00 92 1016.2
20190825072704 59 221 0.0 0.0 0.00 0.00 0.00 92 1016.1
20190825072205 59 221 0.0 0.0 0.00 0.00 0.00 92 1016.1
20190825071705 59 221 0.0 0.0 0.00 0.00 0.00 92 1016.1
20190825071204 59 221 0.0 0.0 0.00 0.00 0.00 91 1016.1
20190825070704 59 221 0.0 0.0 0.00 0.00 0.00 91 1016.0
20190825070205 59 221 0.0 0.0 0.00 0.00 0.00 91 1016.0
20190825065704 60 221 0.0 0.0 0.00 0.00 0.00 90 1015.9
20190825065205 60 221 0.0 0.0 0.00 0.00 0.00 90 1015.8
20190825064704 60 221 0.0 0.0 0.00 0.00 0.00 90 1015.8
20190825064204 60 221 0.0 0.0 0.00 0.00 0.00 89 1015.8
20190825063703 60 221 0.0 0.0 0.00 0.00 0.00 89 1015.9
20190825063204 60 221 0.0 0.0 0.00 0.00 0.00 89 1015.8
20190825062703 60 221 0.0 0.0 0.00 0.00 0.00 89 1015.9
20190825062204 61 221 0.0 0.0 0.00 0.00 0.00 88 1015.9
20190825061704 61 221 0.0 0.0 0.00 0.00 0.00 88 1015.9
20190825061204 61 221 0.0 0.0 0.00 0.00 0.00 88 1015.8
20190825060703 61 221 0.0 0.0 0.00 0.00 0.00 88 1015.7
20190825060205 61 221 0.0 0.0 0.00 0.00 0.00 88 1015.8
20190825055703 61 221 0.0 0.0 0.00 0.00 0.00 88 1015.8
20190825055204 61 221 0.0 1.7 0.00 0.00 0.00 88 1015.8
20190825054704 61 221 0.0 1.7 0.00 0.00 0.00 88 1015.7
20190825054204 61 221 0.0 1.7 0.00 0.00 0.00 87 1015.7
20190825053704 61 221 0.0 1.7 0.00 0.00 0.00 87 1015.5
20190825053204 61 184 0.0 1.7 0.00 0.00 0.00 87 1015.4
20190825052704 61 178 0.0 1.7 0.00 0.00 0.00 87 1015.4
20190825052204 61 188 0.0 1.7 0.00 0.00 0.00 86 1015.5
20190825051703 61 228 0.0 1.7 0.00 0.00 0.00 85 1015.6
20190825051204 62 288 0.0 0.0 0.00 0.00 0.00 84 1015.5
20190825050703 62 288 0.0 1.7 0.00 0.00 0.00 84 1015.6
20190825050203 62 288 0.0 1.7 0.00 0.00 0.00 84 1015.6
20190825045704 62 288 0.0 1.7 0.00 0.00 0.00 83 1015.6
20190825045204 62 288 0.0 1.7 0.00 0.00 0.00 82 1015.5
20190825044704 63 225 0.0 1.7 0.00 0.00 0.00 82 1015.4
20190825044204 63 214 0.0 1.7 0.00 0.00 0.00 82 1015.4
20190825043704 63 214 0.0 1.7 0.00 0.00 0.00 81 1015.4
20190825043204 63 214 0.0 1.7 0.00 0.00 0.00 82 1015.4
20190825042704 64 214 0.0 1.7 0.00 0.00 0.00 81 1015.4
20190825042204 64 214 0.0 1.7 0.00 0.00 0.00 80 1015.3
20190825041704 64 214 0.0 1.7 0.00 0.00 0.00 79 1015.3
20190825041204 64 214 0.0 1.7 0.00 0.00 0.00 79 1015.3
20190825040704 65 261 0.0 1.7 0.00 0.00 0.00 79 1015.3
20190825040204 65 261 0.0 1.7 0.00 0.00 0.00 78 1015.3
20190825035704 65 231 0.0 1.7 0.00 0.00 0.00 78 1015.2
20190825035204 65 246 0.0 1.7 0.00 0.00 0.00 77 1015.1
20190825034704 66 182 0.9 1.7 0.00 0.00 0.00 77 1015.1
20190825034204 66 186 0.9 2.6 0.00 0.00 0.00 76 1015.0
20190825033703 66 207 0.0 2.6 0.00 0.00 0.00 76 1014.9
20190825033204 67 218 0.9 2.6 0.00 0.00 0.00 76 1015.0
20190825032704 67 182 0.9 5.2 0.00 0.00 0.00 74 1014.9
20190825032204 67 221 0.9 5.2 0.00 0.00 0.00 74 1014.8
20190825031704 67 167 0.9 5.2 0.00 0.00 0.00 73 1014.8
20190825031204 67 208 0.9 2.6 0.00 0.00 0.00 73 1014.8
20190825030703 68 212 0.9 2.6 0.00 0.00 0.00 73 1014.7
20190825030204 68 232 0.9 3.5 0.00 0.00 0.00 71 1014.8
20190825025704 69 209 0.9 3.5 0.00 0.00 0.00 71 1014.8
20190825025204 69 210 0.9 5.2 0.00 0.00 0.00 70 1014.7
20190825024704 69 190 0.9 5.2 0.00 0.00 0.00 69 1014.7
20190825024204 69 218 0.9 5.2 0.00 0.00 0.00 68 1014.7
20190825023704 70 306 0.9 2.6 0.00 0.00 0.00 67 1014.6
20190825023204 70 159 0.9 2.6 0.00 0.00 0.00 68 1014.6
20190825022703 70 213 0.9 4.3 0.00 0.00 0.00 68 1014.6
20190825022204 70 205 0.9 4.3 0.00 0.00 0.00 65 1014.6
20190825021704 71 103 0.9 1.7 0.00 0.00 0.00 65 1014.6
20190825021203 71 207 0.9 7.0 0.00 0.00 0.00 65 1014.5
20190825020704 71 273 0.9 7.0 0.00 0.00 0.00 64 1014.5
20190825020204 71 210 0.9 7.0 0.00 0.00 0.00 65 1014.4
20190825015703 71 327 0.0 2.6 0.00 0.00 0.00 65 1014.3
20190825015204 71 5 0.0 2.6 0.00 0.00 0.00 65 1014.3
20190825014704 72 202 0.0 2.6 0.00 0.00 0.00 65 1014.2
20190825014203 72 192 0.9 3.5 0.00 0.00 0.00 64 1014.2
20190825013704 72 221 0.9 5.2 0.00 0.00 0.00 64 1014.2
20190825013204 72 202 0.9 5.2 0.00 0.00 0.00 64 1014.2
20190825012703 73 213 0.9 5.2 0.00 0.00 0.00 63 1014.2
20190825012205 73 286 0.9 4.3 0.00 0.00 0.00 63 1014.2
20190825011704 73 267 0.9 4.3 0.00 0.00 0.00 63 1014.3
20190825011203 73 184 0.9 4.3 0.00 0.00 0.00 63 1014.3
20190825010704 73 227 1.7 4.3 0.00 0.00 0.00 64 1014.3
20190825010204 72 158 1.7 4.3 0.00 0.00 0.00 65 1014.2
20190825005704 72 164 1.7 4.3 0.00 0.00 0.00 64 1014.2
20190825005204 72 232 1.7 6.1 0.00 0.00 0.00 64 1014.2
20190825004703 72 202 1.7 6.1 0.00 0.00 0.00 65 1014.2
20190825004204 72 197 2.6 7.0 0.00 0.00 0.00 64 1014.3
20190825003704 72 183 2.6 7.0 0.00 0.00 0.00 64 1014.3
20190825003204 73 212 2.6 7.0 0.00 0.00 0.00 65 1014.3
20190825002704 73 201 1.7 7.0 0.00 0.00 0.00 65 1014.4
20190825002204 73 170 1.7 4.3 0.00 0.00 0.00 64 1014.3
20190825001703 73 158 1.7 4.3 0.00 0.00 0.00 64 1014.3
20190825001205 73 188 1.7 4.3 0.00 0.00 0.00 66 1014.3
20190825000704 73 208 0.9 5.2 0.00 0.00 0.00 65 1014.2
20190825000204 73 277 1.7 5.2 0.00 0.00 0.00 65 1014.3
20190824235703 73 188 1.7 5.2 0.00 0.00 0.00 65 1014.3
20190824235204 73 187 1.7 5.2 0.00 0.00 0.00 64 1014.2
20190824234704 73 191 1.7 5.2 0.00 0.00 0.00 63 1014.2
20190824234204 73 156 1.7 7.8 0.00 0.00 0.00 66 1014.3
20190824233703 73 91 1.7 7.8 0.00 0.00 0.00 66 1014.2
20190824233204 73 340 1.7 7.8 0.00 0.00 0.00 66 1014.2
20190824232704 73 215 1.7 4.3 0.00 0.00 0.00 67 1014.2
20190824232204 73 150 1.7 7.8 0.00 0.00 0.00 67 1014.3
20190824231704 73 288 1.7 7.8 0.00 0.00 0.00 68 1014.2
20190824231205 73 55 2.6 7.0 0.00 0.00 0.00 68 1014.1
20190824230704 72 250 2.6 7.0 0.00 0.00 0.00 69 1014.2
20190824230204 73 133 2.6 7.0 0.00 0.00 0.00 68 1014.2
20190824225704 73 133 2.6 6.1 0.00 0.00 0.00 67 1014.2
20190824225204 73 220 2.6 6.1 0.00 0.00 0.00 69 1014.3
20190824224704 73 130 2.6 7.8 0.00 0.00 0.00 68 1014.2
20190824224204 73 195 2.6 7.8 0.00 0.00 0.00 69 1014.3
20190824223704 73 292 1.7 5.2 0.00 0.00 0.00 69 1014.4
20190824223204 73 144 1.7 5.2 0.00 0.00 0.00 68 1014.4
20190824222704 72 180 2.6 5.2 0.00 0.00 0.00 68 1014.5
20190824222205 72 213 2.6 5.2 0.00 0.00 0.00 69 1014.5
20190824221704 72 173 1.7 5.2 0.00 0.00 0.00 71 1014.5
20190824221205 71 141 1.7 7.8 0.00 0.00 0.00 71 1014.6
20190824220704 71 209 0.9 7.8 0.00 0.00 0.00 71 1014.6
20190824220204 71 173 0.9 7.8 0.00 0.00 0.00 71 1014.6
20190824215703 71 277 1.7 7.0 0.00 0.00 0.00 71 1014.7
20190824215205 71 328 0.9 7.0 0.00 0.00 0.00 70 1014.7
20190824214704 72 103 0.9 7.0 0.00 0.00 0.00 70 1014.6
20190824214204 72 279 1.7 7.0 0.00 0.00 0.00 69 1014.6
20190824213704 72 184 1.7 7.0 0.00 0.00 0.00 69 1014.6
20190824213203 73 288 1.7 5.2 0.00 0.00 0.00 68 1014.6
20190824212704 73 219 1.7 4.3 0.00 0.00 0.00 67 1014.6
20190824212204 73 181 1.7 3.5 0.00 0.00 0.00 69 1014.5
20190824211704 73 202 1.7 4.3 0.00 0.00 0.00 68 1014.5
20190824211204 72 198 0.9 4.3 0.00 0.00 0.00 69 1014.4
20190824210703 72 144 0.9 7.0 0.00 0.00 0.00 70 1014.5
20190824210204 72 251 0.9 7.0 0.00 0.00 0.00 70 1014.5
20190824205703 72 241 1.7 7.0 0.00 0.00 0.00 70 1014.5
20190824205204 72 240 1.7 6.1 0.00 0.00 0.00 70 1014.5
20190824204704 72 194 1.7 6.1 0.00 0.00 0.00 72 1014.5
20190824204204 71 164 1.7 5.2 0.00 0.00 0.00 72 1014.3
20190824203704 71 191 1.7 5.2 0.00 0.00 0.00 72 1014.4
20190824203204 71 162 1.7 4.3 0.00 0.00 0.00 73 1014.3
20190824202703 70 127 1.7 4.3 0.00 0.00 0.00 73 1014.3
20190824202204 70 176 0.9 4.3 0.00 0.00 0.00 75 1014.3
20190824201704 70 159 0.9 4.3 0.00 0.00 0.00 75 1014.3
20190824201204 70 157 0.9 3.5 0.00 0.00 0.00 74 1014.5
20190824200704 70 186 0.9 5.2 0.00 0.00 0.00 73 1014.4
20190824200204 70 263 0.9 5.2 0.00 0.00 0.00 73 1014.4
20190824195704 70 88 1.7 5.2 0.00 0.00 0.00 72 1014.4
20190824195204 70 243 0.9 5.2 0.00 0.00 0.00 73 1014.5
20190824194704 70 224 0.9 3.5 0.00 0.00 0.00 73 1014.5
20190824194204 69 113 0.9 3.5 0.00 0.00 0.00 75 1014.4
20190824193704 69 140 0.9 3.5 0.00 0.00 0.00 75 1014.4
20190824193204 68 157 0.9 3.5 0.00 0.00 0.00 74 1014.5
20190824192704 68 134 2.6 3.5 0.00 0.00 0.00 77 1014.4
20190824192204 67 134 2.6 3.5 0.00 0.00 0.00 78 1014.4
20190824191704 67 138 1.7 3.5 0.00 0.00 0.00 77 1014.5
20190824191204 67 138 1.7 2.6 0.00 0.00 0.00 78 1014.6
20190824190704 67 138 0.9 2.6 0.00 0.00 0.00 79 1014.6
20190824190204 66 135 1.7 2.6 0.00 0.00 0.00 78 1014.7
20190824185704 66 142 1.7 3.5 0.00 0.00 0.00 79 1014.7
20190824185204 66 144 1.7 3.5 0.00 0.00 0.00 79 1014.7
20190824184703 66 135 1.7 3.5 0.00 0.00 0.00 80 1014.7
20190824184204 66 142 0.9 3.5 0.00 0.00 0.00 81 1014.7
20190824183703 65 143 0.9 3.5 0.00 0.00 0.00 81 1014.8
20190824183204 65 141 0.9 3.5 0.00 0.00 0.00 82 1014.7
20190824182704 65 145 0.9 3.5 0.00 0.00 0.00 81 1014.8
20190824182205 65 146 0.9 3.5 0.00 0.00 0.00 80 1014.8
20190824181705 65 145 0.9 2.6 0.00 0.00 0.00 80 1014.8
20190824181204 65 144 1.7 3.5 0.00 0.00 0.00 80 1014.8
20190824180704 65 144 0.9 3.5 0.00 0.00 0.00 79 1014.7
20190824180204 65 144 0.9 3.5 0.00 0.00 0.00 80 1014.7
20190824175704 65 141 1.7 3.5 0.00 0.00 0.00 79 1014.6
20190824175205 65 140 1.7 3.5 0.00 0.00 0.00 80 1014.6
20190824174704 65 142 1.7 3.5 0.00 0.00 0.00 79 1014.6
20190824174204 64 135 1.7 3.5 0.00 0.00 0.00 79 1014.5
20190824173704 64 142 1.7 3.5 0.00 0.00 0.00 79 1014.5
20190824173204 64 132 1.7 3.5 0.00 0.00 0.00 79 1014.5
20190824172704 65 140 1.7 3.5 0.00 0.00 0.00 78 1014.6
20190824172205 65 136 1.7 3.5 0.00 0.00 0.00 78 1014.5
20190824171704 65 136 1.7 3.5 0.00 0.00 0.00 77 1014.4
20190824171204 65 130 1.7 4.3 0.00 0.00 0.00 77 1014.4
20190824170704 65 129 0.9 4.3 0.00 0.00 0.00 76 1014.3
20190824170204 66 132 1.7 4.3 0.00 0.00 0.00 76 1014.3
20190824165704 66 121 0.9 4.3 0.00 0.00 0.00 75 1014.3
20190824165204 66 123 0.9 4.3 0.00 0.00 0.00 75 1014.3
20190824164704 65 159 1.7 4.3 0.00 0.00 0.00 76 1014.3
20190824164203 65 202 1.7 4.3 0.00 0.00 0.00 76 1014.2
20190824163704 65 146 1.7 4.3 0.00 0.00 0.00 77 1014.1
20190824163204 65 146 1.7 3.5 0.00 0.00 0.00 77 1014.1
20190824162703 65 122 0.9 4.3 0.00 0.00 0.00 77 1014.1
20190824162204 64 149 0.9 4.3 0.00 0.00 0.00 78 1014.0
20190824161704 65 144 0.9 4.3 0.00 0.00 0.00 77 1014.1
20190824161204 65 146 0.9 3.5 0.00 0.00 0.00 76 1014.1
20190824160704 64 157 0.9 3.5 0.00 0.00 0.00 78 1014.0
20190824160204 64 148 0.9 3.5 0.00 0.00 0.00 77 1014.1
20190824155704 64 144 0.9 4.3 0.00 0.00 0.00 78 1014.0
20190824155204 63 150 1.7 4.3 0.00 0.00 0.00 80 1014.0
20190824154703 62 155 1.7 4.3 0.00 0.00 0.00 81 1013.9
20190824154204 61 161 0.9 2.6 0.00 0.00 0.00 83 1013.9
20190824153703 61 155 0.9 2.6 0.00 0.00 0.00 83 1013.8
20190824153204 60 157 0.0 2.6 0.00 0.00 0.00 83 1013.8
20190824152704 60 159 0.0 2.6 0.00 0.00 0.00 83 1013.9
20190824152204 60 232 0.0 0.0 0.00 0.00 0.00 82 1014.0
20190824151704 60 232 0.0 0.0 0.00 0.00 0.00 83 1014.1
20190824151205 59 261 0.0 0.0 0.00 0.00 0.00 83 1014.1
20190824150704 59 261 0.0 0.0 0.00 0.00 0.00 82 1014.3
20190824150204 59 261 0.0 0.0 0.00 0.00 0.00 83 1014.3
20190824145704 59 261 0.0 0.0 0.00 0.00 0.00 87 1014.0
20190824145205 58 261 0.0 0.0 0.00 0.00 0.00 88 1014.2
20190824144704 58 261 0.0 0.0 0.00 0.00 0.00 88 1014.2
20190824144204 58 261 0.0 0.0 0.00 0.00 0.00 89 1014.2
20190824143704 58 261 0.0 0.0 0.00 0.00 0.00 88 1014.1
20190824143204 57 261 0.0 0.0 0.00 0.00 0.00 89 1014.0
20190824142705 57 261 0.0 0.0 0.00 0.00 0.00 89 1013.9
20190824142204 57 261 0.0 0.0 0.00 0.00 0.00 89 1013.9
20190824141705 57 261 0.0 0.0 0.00 0.00 0.00 90 1013.8
20190824141204 57 261 0.0 0.0 0.00 0.00 0.00 90 1013.6
20190824140704 56 261 0.0 0.0 0.00 0.00 0.00 90 1013.5
20190824140204 56 261 0.0 0.0 0.00 0.00 0.00 90 1013.5
20190824135704 56 261 0.0 0.0 0.00 0.00 0.00 90 1013.6
20190824135204 56 261 0.0 0.0 0.00 0.00 0.00 90 1013.6